Weather History for KHQU - April, 2013

Change the Weather History Date:

Thursday, April 11, 2013

  Actual Average (KDBN) Record (KDBN)
Temperature  
Mean Temperature 70 °F -  
Max Temperature 79 °F 73 °F 91 °F (1978)
Min Temperature 60 °F 45 °F 33 °F (1960)
Cooling Degree Days 4    
Growing Degree Days 20 (Base 50)    
Moisture  
Dew Point 66 °F    
Average Humidity 90    
Maximum Humidity 100    
Minimum Humidity 66    
Precipitation  
Precipitation 0.00 in - - ()
Sea Level Pressure  
Sea Level Pressure 29.94 in    
Wind  
Wind Speed 5 mph (SSE)    
Max Wind Speed 12 mph    
Max Gust Speed 20 mph    
Visibility 9 miles    
Events      
Averages and records for this station are not official NWS values.
T = Trace of Precipitation, MM = Missing Value Source: NWS Daily Summary

Daily Weather History Graph

Daily Weather History Graph

Search for Another Location

Airport or City:

Trip Planner

Search our weather history database for the weather conditions in past years. The results will help you decide how hot, cold, wet, or windy it might be!

Date:

Astronomy

Apr. 11, 2013 Rise Set
Actual Time 7:04 AM EDT 7:58 PM EDT
Civil Twilight 6:38 AM EDT 8:23 PM EDT
Nautical Twilight 6:08 AM EDT 8:53 PM EDT
Astronomical Twilight 5:38 AM EDT 9:24 PM EDT
Moon 7:39 AM EDT (4/11) 9:25 PM EDT (4/11)
Length of Visible Light 13h 44m
Length of Day
12h 53m
New Moon, 2% of the Moon is Illuminated
Apr 11
New Moon
Apr 18
First Quarter
Apr 25
Full
May 2
Last Quarter
May 9
New

Hourly Weather History & Observations

Time (EDT) Temp. Dew Point Humidity Pressure Visibility Wind Dir Wind Speed Gust Speed Precip Events Conditions
12:15 AM 68.2 °F 61.2 °F 78% 30.03 in 10.0 mi South 6.9 mph - N/A   Clear
12:35 AM 67.5 °F 61.5 °F 81% 30.03 in 10.0 mi South 5.8 mph - N/A   Clear
12:55 AM 66.7 °F 61.5 °F 83% 30.03 in 10.0 mi South 4.6 mph - N/A   Clear
1:15 AM 66.4 °F 61.7 °F 85% 30.03 in 10.0 mi SSE 4.6 mph - N/A   Clear
1:35 AM 65.8 °F 61.9 °F 87% 30.03 in 10.0 mi SSE 3.5 mph - N/A   Clear
1:55 AM 65.3 °F 62.1 °F 89% 30.03 in 10.0 mi South 4.6 mph - N/A   Clear
2:15 AM 64.8 °F 62.1 °F 91% 30.03 in 10.0 mi South 4.6 mph - N/A   Clear
2:35 AM 64.0 °F 62.1 °F 93% 30.03 in 10.0 mi South 4.6 mph - N/A   Clear
2:55 AM 63.7 °F 62.1 °F 94% 30.03 in 10.0 mi SSE 3.5 mph - N/A   Clear
3:15 AM 62.8 °F 61.7 °F 96% 30.01 in 10.0 mi SE 4.6 mph - N/A   Clear
3:35 AM 62.6 °F 62.1 °F 98% 30.01 in 10.0 mi SSE 3.5 mph - N/A   Clear
3:55 AM 62.2 °F 62.2 °F 100% 30.01 in 10.0 mi SSE 3.5 mph - N/A   Clear
4:15 AM 62.1 °F 62.1 °F 100% 30.00 in 10.0 mi SSE 3.5 mph - N/A   Clear
4:35 AM 61.9 °F 61.9 °F 100% 30.00 in 10.0 mi Calm Calm - N/A   Clear
4:55 AM 61.7 °F 61.7 °F 100% 30.00 in 10.0 mi SSE 3.5 mph - N/A   Clear
5:15 AM 61.7 °F 61.7 °F 100% 30.01 in 10.0 mi SSE 3.5 mph - N/A   Clear
5:35 AM 61.2 °F 61.2 °F 100% 30.00 in 10.0 mi Calm Calm - N/A   Clear
5:55 AM 60.8 °F 60.8 °F 100% 30.00 in 10.0 mi Calm Calm - N/A   Clear
6:15 AM 60.6 °F 60.6 °F 100% 30.00 in 7.0 mi Calm Calm - N/A   Clear
6:35 AM 60.1 °F 60.1 °F 100% 30.00 in 7.0 mi Calm Calm - N/A   Clear
6:55 AM 60.8 °F 60.8 °F 100% 30.01 in 7.0 mi SSE 3.5 mph - N/A   Mostly Cloudy
7:15 AM 61.7 °F 61.7 °F 100% 30.01 in 5.0 mi SSE 3.5 mph - N/A   Overcast
7:35 AM 62.2 °F 62.2 °F 100% 30.01 in 1.0 mi Calm Calm - N/A   Overcast
7:55 AM 62.8 °F 62.8 °F 100% 30.03 in 0.8 mi South 3.5 mph - N/A   Overcast
8:15 AM 63.5 °F 63.5 °F 100% 30.03 in 0.8 mi South 4.6 mph - N/A   Overcast
8:35 AM 63.5 °F 63.5 °F 100% 30.03 in 0.8 mi South 5.8 mph - N/A   Overcast
8:55 AM 63.7 °F 63.7 °F 100% 30.03 in 1.5 mi SSE 3.5 mph - N/A   Overcast
9:15 AM 64.4 °F 64.4 °F 100% 30.03 in 4.0 mi SSE 4.6 mph - N/A   Overcast
9:35 AM 65.1 °F 65.1 °F 100% 30.03 in 7.0 mi SSE 8.1 mph - N/A   Overcast
9:55 AM 66.2 °F 66.2 °F 100% 30.03 in 10.0 mi South 6.9 mph - N/A   Overcast
10:15 AM 67.3 °F 66.7 °F 98% 30.03 in 10.0 mi South 3.5 mph - N/A   Overcast
10:35 AM 68.9 °F 66.9 °F 93% 30.03 in 10.0 mi South 4.6 mph - N/A   Overcast
10:55 AM 70.7 °F 67.1 °F 88% 30.02 in 10.0 mi SSW 6.9 mph - N/A   Overcast
11:15 AM 72.1 °F 67.3 °F 85% 30.01 in 10.0 mi South 9.2 mph - N/A   Mostly Cloudy
11:35 AM 73.4 °F 67.3 °F 81% 30.01 in 10.0 mi South 6.9 mph - N/A   Mostly Cloudy
11:55 AM 74.5 °F 67.1 °F 78% 30.00 in 10.0 mi SSW 6.9 mph - N/A   Scattered Clouds
12:15 PM 75.4 °F 66.6 °F 74% 29.99 in 10.0 mi South 4.6 mph - N/A   Clear
12:35 PM 76.8 °F 67.3 °F 72% 29.99 in 10.0 mi South 9.2 mph - N/A   Scattered Clouds
1:15 PM 77.0 °F 66.9 °F 71% 29.97 in 10.0 mi South 6.9 mph - N/A   Mostly Cloudy
1:35 PM 77.4 °F 66.9 °F 70% 29.96 in 10.0 mi SSE 9.2 mph - N/A   Mostly Cloudy
2:15 PM 79.3 °F 67.5 °F 67% 29.94 in 10.0 mi South 4.6 mph - N/A   Mostly Cloudy
2:35 PM 79.0 °F 67.6 °F 68% 29.94 in 10.0 mi SSE 4.6 mph - N/A   Mostly Cloudy
2:55 PM 79.9 °F 67.8 °F 66% 29.92 in 10.0 mi SE 8.1 mph - N/A   Mostly Cloudy
3:15 PM 79.5 °F 67.6 °F 67% 29.90 in 10.0 mi SSE 8.1 mph - N/A   Mostly Cloudy
3:35 PM 79.3 °F 67.6 °F 67% 29.88 in 10.0 mi SSE 8.1 mph - N/A   Mostly Cloudy
3:55 PM 77.7 °F 68.0 °F 72% 29.88 in 10.0 mi SSE 9.2 mph - N/A   Overcast
4:15 PM 76.5 °F 68.9 °F 77% 29.87 in 4.0 mi SSW 5.8 mph - N/A   Overcast
4:35 PM 72.9 °F 70.9 °F 93% 29.86 in 10.0 mi Calm Calm - N/A   Overcast
4:55 PM 75.0 °F 71.2 °F 88% 29.86 in 10.0 mi SSE 3.5 mph - N/A   Mostly Cloudy
5:15 PM 75.6 °F 70.9 °F 85% 29.84 in 10.0 mi Calm Calm - N/A   Mostly Cloudy
5:35 PM 76.5 °F 70.2 °F 81% 29.83 in 10.0 mi SSE 3.5 mph - N/A   Scattered Clouds
5:55 PM 76.3 °F 70.0 °F 81% 29.83 in 10.0 mi SSE 4.6 mph - N/A   Mostly Cloudy
6:15 PM 72.7 °F 70.7 °F 93% 29.85 in 1.0 mi South 5.8 mph 18.4 mph N/A   Overcast
6:35 PM 69.4 °F 67.3 °F 93% 29.83 in 10.0 mi South 5.8 mph - N/A   Mostly Cloudy
6:55 PM 68.9 °F 67.5 °F 95% 29.82 in 10.0 mi SSE 4.6 mph - N/A   Scattered Clouds
7:15 PM 69.1 °F 67.5 °F 95% 29.81 in 10.0 mi SSE 5.8 mph - N/A   Clear
7:35 PM 69.1 °F 67.5 °F 95% 29.81 in 10.0 mi ESE 3.5 mph - N/A   Clear
7:55 PM 68.5 °F 68.0 °F 98% 29.82 in 10.0 mi Calm Calm - N/A   Clear
8:15 PM 68.5 °F 68.4 °F 99% 29.81 in 10.0 mi SE 4.6 mph - N/A   Scattered Clouds
8:35 PM 69.3 °F 68.9 °F 99% 29.80 in 10.0 mi SE 5.8 mph - N/A   Scattered Clouds
8:55 PM 69.6 °F 69.3 °F 99% 29.80 in 10.0 mi SE 4.6 mph - N/A   Scattered Clouds
9:15 PM 70.0 °F 68.4 °F 95% 29.79 in 10.0 mi SE 4.6 mph - N/A   Clear
9:35 PM 69.4 °F 67.6 °F 94% 29.81 in 10.0 mi SSE 8.1 mph - N/A   Scattered Clouds
9:55 PM 69.6 °F 67.3 °F 92% 29.82 in 10.0 mi SSE 6.9 mph - N/A   Mostly Cloudy
10:15 PM 69.8 °F 68.0 °F 94% 29.81 in 10.0 mi SSE 11.5 mph 18.4 mph N/A   Mostly Cloudy
10:35 PM 69.8 °F 68.5 °F 96% 29.81 in 10.0 mi SSE 9.2 mph 17.3 mph N/A   Overcast
10:55 PM 69.8 °F 68.9 °F 97% 29.81 in 10.0 mi SSE 11.5 mph 18.4 mph N/A   Mostly Cloudy
11:15 PM 69.3 °F 69.3 °F 100% 29.81 in 10.0 mi SSE 8.1 mph 16.1 mph N/A   Mostly Cloudy
11:35 PM 69.4 °F 69.4 °F 100% 29.81 in 10.0 mi SSE 8.1 mph 19.6 mph N/A   Scattered Clouds
11:55 PM 69.8 °F 69.8 °F 100% 29.81 in 10.0 mi South 10.4 mph 17.3 mph N/A   Mostly Cloudy